Location: Poughquag
(41.6090°N, 73.6820°W)
Time: 10:17:05
(UTC-04:00)

ACS3 Solar Sail - Pass Details

Date: 22 June 2024
Orbit: 992 x 1023 km, 97.4° (Epoch: 11 July)

Event Time Altitude Azimuth Distance (km) Brightness Sun altitude
Exits shadow 22:31:41 21° 172° (S) 2,056 6.0 -16.8°
Maximum altitude 22:36:00 80° 258° (WSW) 1,014 4.9 -17.2°
Drops below altitude 10° 22:42:15 10° 346° (NNW) 2,766 8.3 -17.9°
Sets 22:44:44 0° 348° (NNW) 3,718 9.2 -18.1°
